Home > Weather > Qaanaaq > Past weeks

Flag for Greenland Weather for the Past 2 Weeks in Qaanaaq, Greenland

Now
-18 °F

Clear.


Feels Like: -41 °F
Forecast: -23 / -21 °F
Wind: 13 mph from East

Location: Thule A. B.

Current Time: Feb 7, 2016 at 1:32:26 AM

Latest Report: Feb 6, 2016 at 11:58 PM


Visibility: N/A

Pressure: 29.53 "Hg

Humidity: 75%

Dew point: -24 °F

Location of QaanaaqLocation

Historic Weather in Qaanaaq — Graph

°F

Qaanaaq Temperature Yesterday

Maximum temperature yesterday: -11 °F (at 12:58 AM)
Minimum temperature yesterday: -22 °F (at 9:58 AM)
Average temperature yesterday: -19 °F

High & Low Weather Summary for the Past Weeks

 TemperatureHumidityPressure
High21 °F (Jan 28, 10:58 AM)100% (Jan 23, 9:58 AM)30.03 "Hg (Jan 23, 9:58 AM)
Low-29 °F (Jan 23, 9:58 AM)32% (Jan 28, 10:58 AM)28.91 "Hg (Jan 25, 8:58 PM)
Average-13 °F69%29.50 "Hg
* Reported Jan 22 11:58 PM — Feb 6 11:58 PM, Qaanaaq, Weather by CustomWeather, © 2016

Note: Actual official high and low records may vary slightly from our data, if they occured in-between our weather recording intervals... More about our weather records

Advertising

Qaanaaq Weather History for the Previous 24 Hours

 ConditionsComfort  
Time TempWeatherWind HumidityBarometerVisibility
11:58 PM
Sat, Feb 6
-18 °FClear.13 mph75%29.53 "HgN/A
10:58 PM-20 °FClear.14 mph75%29.53 "HgN/A
9:58 PM-20 °FClear.14 mph75%29.54 "HgN/A
8:58 PM-20 °FSunny.14 mph75%29.55 "HgN/A
7:58 PM-20 °FSunny.15 mph75%29.56 "HgN/A
6:58 PM-17 °FSunny.12 mph76%29.58 "HgN/A
5:58 PM-20 °FSunny.10 mph75%29.59 "Hg6 mi
4:58 PM-22 °FSunny.8 mph75%29.60 "HgN/A
3:58 PM-20 °FSunny.12 mph75%29.60 "HgN/A
2:58 PM-20 °FSunny.12 mph75%29.61 "Hg6 mi
1:58 PM-20 °FSunny.13 mph75%29.62 "HgN/A
12:58 PM-20 °FSunny.13 mph75%29.64 "HgN/A
11:58 AM-22 °FSunny.10 mph75%29.65 "HgN/A
10:58 AM-20 °FSunny.12 mph75%29.67 "HgN/A
9:58 AM-22 °FSunny.6 mph75%29.68 "HgN/A
8:58 AM-20 °FSunny.8 mph75%29.70 "HgN/A
7:58 AM-21 °FClear.6 mph76%29.70 "HgN/A
6:58 AM-17 °FClear.8 mph76%29.72 "HgN/A
5:58 AM-17 °FClear.12 mph76%29.72 "HgN/A
4:58 AM-18 °FClear.13 mph75%29.73 "HgN/A
3:58 AM-17 °FClear.13 mph76%29.75 "HgN/A
2:58 AM-14 °FSunny.10 mph78%29.75 "HgN/A
1:58 AM-15 °FClear.12 mph83%29.77 "HgN/A
Weather by CustomWeather, © 2016

See weather overviewHow to use our weather pages